| time (UTC) | temp F | wind direction | speed MPH | gust MPH | rain 1hr in | rain 24hr in | rain mn in | humidity % | barometer mb |
| 20260504020016 | 39 | 245 | 0.0 | 0.0 | 0.00 | 0.00 | 0.00 | 74 | 1016.7 |
| 20260504014517 | 39 | 245 | 0.0 | 0.0 | 0.00 | 0.00 | 0.00 | 76 | 1016.6 |
| 20260504013017 | 41 | 245 | 0.0 | 1.0 | 0.00 | 0.00 | 0.00 | 69 | 1016.2 |
| 20260504011514 | 42 | 245 | 0.0 | 0.0 | 0.00 | 0.00 | 0.00 | 69 | 1016.2 |
| 20260504010017 | 42 | 245 | 0.0 | 0.0 | 0.00 | 0.00 | 0.00 | 68 | 1016.0 |
| 20260504004519 | 44 | 245 | 0.0 | 0.0 | 0.00 | 0.00 | 0.00 | 61 | 1015.9 |
| 20260504003020 | 46 | 245 | 0.0 | 0.0 | 0.00 | 0.00 | 0.00 | 57 | 1015.8 |
| 20260504001516 | 48 | 245 | 0.0 | 0.0 | 0.00 | 0.00 | 0.00 | 52 | 1015.6 |
| 20260504000017 | 51 | 247 | 0.0 | 1.0 | 0.00 | 0.00 | 0.00 | 43 | 1015.7 |
| 20260503234521 | 54 | 295 | 0.0 | 3.0 | 0.00 | 0.00 | 0.00 | 36 | 1015.6 |
| 20260503233018 | 56 | 313 | 4.0 | 8.0 | 0.00 | 0.00 | 0.00 | 31 | 1015.7 |
| 20260503231523 | 55 | 310 | 3.0 | 6.0 | 0.00 | 0.00 | 0.00 | 31 | 1015.7 |
| 20260503230018 | 57 | 289 | 3.0 | 6.0 | 0.00 | 0.00 | 0.00 | 30 | 1015.9 |
| 20260503224521 | 57 | 65 | 2.0 | 12.0 | 0.00 | 0.00 | 0.00 | 29 | 1015.9 |
| 20260503223023 | 57 | 297 | 4.0 | 7.0 | 0.00 | 0.00 | 0.00 | 30 | 1015.9 |
| 20260503221520 | 57 | 295 | 5.0 | 9.0 | 0.00 | 0.00 | 0.00 | 29 | 1015.8 |
| 20260503220022 | 57 | 268 | 4.0 | 11.0 | 0.00 | 0.00 | 0.00 | 31 | 1015.8 |
| 20260503214536 | 57 | 292 | 7.0 | 9.0 | 0.00 | 0.00 | 0.00 | 31 | 1015.9 |
| 20260503213022 | 57 | 248 | 6.0 | 11.0 | 0.00 | 0.00 | 0.00 | 30 | 1015.9 |
| 20260503211523 | 57 | 271 | 2.0 | 11.0 | 0.00 | 0.00 | 0.00 | 30 | 1016.0 |
| 20260503210012 | 56 | 295 | 2.0 | 8.0 | 0.00 | 0.00 | 0.00 | 30 | 1016.1 |
| 20260503204513 | 57 | 326 | 6.0 | 11.0 | 0.00 | 0.00 | 0.00 | 34 | 1016.2 |
| 20260503203017 | 56 | 287 | 1.0 | 11.0 | 0.00 | 0.00 | 0.00 | 33 | 1016.4 |
| 20260503201524 | 55 | 301 | 6.0 | 14.0 | 0.00 | 0.00 | 0.00 | 31 | 1016.6 |
| 20260503200033 | 55 | 314 | 3.0 | 12.0 | 0.00 | 0.00 | 0.00 | 31 | 1016.8 |
| 20260503194513 | 55 | 248 | 4.0 | 11.0 | 0.00 | 0.00 | 0.00 | 36 | 1017.1 |
| 20260503193015 | 54 | 283 | 8.0 | 15.0 | 0.00 | 0.00 | 0.00 | 32 | 1017.3 |
| 20260503191522 | 53 | 302 | 3.0 | 11.0 | 0.00 | 0.00 | 0.00 | 30 | 1017.7 |
| 20260503190025 | 54 | 302 | 7.0 | 17.0 | 0.00 | 0.00 | 0.00 | 28 | 1017.9 |
| 20260503184538 | 53 | 300 | 6.0 | 12.0 | 0.00 | 0.00 | 0.00 | 35 | 1018.1 |
| 20260503183015 | 53 | 258 | 8.0 | 13.0 | 0.00 | 0.00 | 0.00 | 35 | 1018.1 |
| 20260503181518 | 52 | 227 | 5.0 | 15.0 | 0.00 | 0.00 | 0.00 | 38 | 1018.2 |
| 20260503180040 | 51 | 45 | 5.0 | 13.0 | 0.00 | 0.00 | 0.00 | 39 | 1018.5 |
| 20260503174514 | 51 | 298 | 6.0 | 13.0 | 0.00 | 0.00 | 0.00 | 35 | 1018.3 |
| 20260503173013 | 51 | 319 | 6.0 | 17.0 | 0.00 | 0.00 | 0.00 | 39 | 1018.7 |
| 20260503171518 | 50 | 274 | 6.0 | 12.0 | 0.00 | 0.00 | 0.00 | 42 | 1018.6 |
| 20260503081528 | 33 | 274 | 1.0 | 3.0 | 0.00 | 0.00 | 0.00 | 81 | 1016.5 |
| 20260503071507 | 35 | 257 | 3.0 | 6.0 | 0.00 | 0.00 | 0.00 | 76 | 1016.2 |
| 20260503054516 | 37 | 254 | 3.0 | 5.0 | 0.00 | 0.00 | 0.00 | 71 | 1016.2 |
| 20260503053017 | 37 | 241 | 2.0 | 5.0 | 0.00 | 0.00 | 0.00 | 71 | 1016.2 |
| 20260503051502 | 37 | 254 | 3.0 | 6.0 | 0.00 | 0.00 | 0.00 | 71 | 1016.0 |
| 20260503050006 | 36 | 236 | 1.0 | 2.0 | 0.00 | 0.00 | 0.00 | 72 | 1015.9 |
| 20260503044507 | 37 | 238 | 1.0 | 3.0 | 0.00 | 0.00 | 0.00 | 70 | 1015.8 |
| 20260503043014 | 38 | 262 | 2.0 | 5.0 | 0.00 | 0.00 | 0.00 | 66 | 1015.8 |
| 20260503041518 | 38 | 122 | 2.0 | 4.0 | 0.00 | 0.00 | 0.00 | 65 | 1015.8 |
| 20260503040002 | 39 | 256 | 0.0 | 6.0 | 0.00 | 0.00 | 0.00 | 64 | 1015.7 |
| 20260503034506 | 40 | 18 | 0.0 | 4.0 | 0.00 | 0.00 | 0.00 | 61 | 1015.7 |
| 20260503033020 | 40 | 280 | 3.0 | 9.0 | 0.00 | 0.00 | 0.00 | 61 | 1015.7 |
| 20260503031514 | 40 | 263 | 2.0 | 6.0 | 0.00 | 0.00 | 0.00 | 60 | 1015.6 |
| 20260503030037 | 41 | 245 | 2.0 | 11.0 | 0.00 | 0.00 | 0.00 | 60 | 1015.6 |
| 20260503024503 | 41 | 243 | 2.0 | 6.0 | 0.00 | 0.00 | 0.00 | 60 | 1015.5 |
| 20260503023007 | 42 | 231 | 2.0 | 8.0 | 0.00 | 0.00 | 0.00 | 60 | 1015.6 |
| 20260503021510 | 41 | 221 | 3.0 | 6.0 | 0.00 | 0.00 | 0.00 | 61 | 1015.6 |